#�ϑ�����,���ϕ���,���ϕ���,�ő啗��,�ő啗����������,�ő�u�ԕ���,�ő�u�ԕ�����������
#(�N����),(m/s)   ,(16����),(m/s)   ,(16����)        ,(m/s)       ,(16����)            
2016/5/3 0:01,2.1,3,2.1,3,2.6,4
2016/5/3 0:02,2.2,3,2.2,3,4.2,3
2016/5/3 0:03,2.4,3,2.4,3,4.2,3
2016/5/3 0:04,2.4,3,2.4,3,4.2,4
2016/5/3 0:05,2.4,3,2.4,3,3.7,4
2016/5/3 0:06,2.4,3,2.4,3,4.4,3
2016/5/3 0:07,2.4,4,2.4,3,3.1,5
2016/5/3 0:08,2.3,3,2.4,3,2.6,5
2016/5/3 0:09,2.3,3,2.3,3,3.1,5
2016/5/3 0:10,2.3,3,2.3,3,2.6,3
2016/5/3 0:11,2.3,4,2.3,3,3.8,3
2016/5/3 0:12,2.2,4,2.3,3,3.3,3
2016/5/3 0:13,2.2,4,2.2,3,3.3,3
2016/5/3 0:14,2.3,3,2.3,3,3.3,2
2016/5/3 0:15,2.2,3,2.2,3,2.4,4
2016/5/3 0:16,2.1,3,2.2,3,2.4,3
2016/5/3 0:17,2.1,4,2.1,4,2.5,4
2016/5/3 0:18,2.1,4,2.1,3,3.2,3
2016/5/3 0:19,2.1,3,2.1,3,2.9,3
2016/5/3 0:20,2.2,3,2.2,3,3.1,3
2016/5/3 0:21,2.1,3,2.2,4,3.7,4
2016/5/3 0:22,2.1,3,2.1,3,3.7,3
2016/5/3 0:23,2.2,3,2.2,3,3.5,4
2016/5/3 0:24,2.1,3,2.2,3,2.9,3
2016/5/3 0:25,2.2,3,2.2,3,4.2,2
2016/5/3 0:26,2.3,3,2.3,3,4.1,4
2016/5/3 0:27,2.4,3,2.4,3,3.9,3
2016/5/3 0:28,2.5,3,2.5,3,4.1,3
2016/5/3 0:29,2.5,3,2.5,3,4.4,3
2016/5/3 0:30,2.6,3,2.6,3,4.8,4
2016/5/3 0:31,2.6,3,2.6,3,3.8,3
2016/5/3 0:32,2.8,3,2.8,3,5.6,3
2016/5/3 0:33,2.9,3,2.9,3,5.2,4
2016/5/3 0:34,2.9,3,2.9,3,3.7,3
2016/5/3 0:35,2.9,3,2.9,3,4.4,4
2016/5/3 0:36,2.9,3,2.9,3,4.2,4
2016/5/3 0:37,2.9,3,2.9,3,4.9,3
2016/5/3 0:38,2.9,3,3,4,4.8,3
2016/5/3 0:39,2.9,3,3,4,3.3,4
2016/5/3 0:40,2.8,3,2.9,4,3.8,3
2016/5/3 0:41,2.7,3,2.8,4,3.7,3
2016/5/3 0:42,2.7,3,2.8,4,4.9,3
2016/5/3 0:43,2.5,3,2.7,4,3.3,4
2016/5/3 0:44,2.6,3,2.6,4,4.3,2
2016/5/3 0:45,2.7,3,2.7,4,4.8,3
2016/5/3 0:46,2.8,3,2.8,4,5.1,2
2016/5/3 0:47,2.7,3,2.8,4,4.5,4
2016/5/3 0:48,2.7,3,2.7,3,4.9,3
2016/5/3 0:49,2.7,3,2.7,3,3.9,3
2016/5/3 0:50,2.9,3,2.9,3,5.2,3
2016/5/3 0:51,3,3,3,3,5.5,3
2016/5/3 0:52,3,3,3.1,3,6.4,3
2016/5/3 0:53,3.1,3,3.1,3,3.7,3
2016/5/3 0:54,3,3,3.1,3,3.7,3
2016/5/3 0:55,3,3,3.1,3,3.8,5
2016/5/3 0:56,3,3,3,3,4.4,4
2016/5/3 0:57,3,3,3,3,4.1,3
2016/5/3 0:58,3,3,3,3,4.9,3
2016/5/3 0:59,3,3,3,3,5,3
2016/5/3 1:00,2.9,3,3,3,3.6,3
2016/5/3 1:01,2.8,3,2.9,3,3.9,3
2016/5/3 1:02,2.7,3,2.7,3,3.5,4
2016/5/3 1:03,2.8,3,2.8,3,5.2,3
2016/5/3 1:04,2.8,3,2.8,3,4.9,3
2016/5/3 1:05,2.8,3,2.8,3,3,3
2016/5/3 1:06,2.7,3,2.8,3,3.3,4
2016/5/3 1:07,2.8,3,2.8,3,5.8,4
2016/5/3 1:08,2.7,3,2.8,3,3.7,3
2016/5/3 1:09,2.6,3,2.7,3,4.4,3
2016/5/3 1:10,2.6,3,2.6,3,3.2,3
2016/5/3 1:11,2.7,3,2.7,3,3.8,2
2016/5/3 1:12,2.7,3,2.7,3,4.3,3
2016/5/3 1:13,2.6,3,2.7,3,4.3,4
2016/5/3 1:14,2.7,3,2.7,3,4.5,2
2016/5/3 1:15,2.7,3,2.7,3,3.8,3
2016/5/3 1:16,2.9,3,2.9,3,5.1,5
2016/5/3 1:17,2.9,3,2.9,3,4.8,3
2016/5/3 1:18,2.9,3,2.9,3,5,3
2016/5/3 1:19,2.9,3,3,3,4.5,3
2016/5/3 1:20,3.1,3,3.1,3,4.9,3
2016/5/3 1:21,3.1,3,3.1,3,4.4,2
2016/5/3 1:22,3.2,3,3.2,3,5.1,4
2016/5/3 1:23,3.2,3,3.2,3,5.8,3
2016/5/3 1:24,3.2,3,3.2,3,5.5,3
2016/5/3 1:25,3.2,3,3.2,3,5.2,3
2016/5/3 1:26,3.3,3,3.3,3,6.7,3
2016/5/3 1:27,3.2,3,3.3,3,5.4,3
2016/5/3 1:28,3.2,3,3.2,3,4.4,2
2016/5/3 1:29,3.3,3,3.3,3,6.2,2
2016/5/3 1:30,3.3,3,3.3,3,5.7,3
2016/5/3 1:31,3.3,3,3.4,3,5.7,5
2016/5/3 1:32,3.1,3,3.3,3,2.7,2
2016/5/3 1:33,3.1,3,3.1,3,4.1,3
2016/5/3 1:34,3,3,3.1,3,3,3
2016/5/3 1:35,2.9,3,3,3,4.1,4
2016/5/3 1:36,2.8,3,2.9,3,3.7,4
2016/5/3 1:37,2.7,3,2.8,3,4.1,3
2016/5/3 1:38,2.7,4,2.7,3,3.8,4
2016/5/3 1:39,2.6,4,2.7,3,3.6,4
2016/5/3 1:40,2.6,4,2.6,3,4.4,3
2016/5/3 1:41,2.5,4,2.5,3,3.2,3
2016/5/3 1:42,2.6,4,2.6,3,5.5,3
2016/5/3 1:43,2.6,3,2.6,3,5.2,4
2016/5/3 1:44,2.8,3,2.8,3,5.6,3
2016/5/3 1:45,2.9,3,2.9,3,5.8,3
2016/5/3 1:46,3,4,3,4,5.5,4
2016/5/3 1:47,3,4,3,4,4.3,4
2016/5/3 1:48,3,4,3,4,4.4,4
2016/5/3 1:49,3,4,3,4,4.3,5
2016/5/3 1:50,2.9,4,3,4,3.7,4
2016/5/3 1:51,2.8,4,2.9,4,2.7,5
2016/5/3 1:52,2.7,4,2.8,4,5.4,3
2016/5/3 1:53,2.7,4,2.7,4,5.1,3
2016/5/3 1:54,2.6,4,2.7,4,3.8,4
2016/5/3 1:55,2.6,4,2.6,4,4.1,5
2016/5/3 1:56,2.6,4,2.6,4,5.1,5
2016/5/3 1:57,2.6,4,2.6,4,3.6,5
2016/5/3 1:58,2.7,4,2.7,4,5.1,3
2016/5/3 1:59,2.8,4,2.8,4,5.7,5
2016/5/3 2:00,2.9,4,2.9,4,5.2,6
2016/5/3 2:01,3.1,4,3.1,4,5.1,4
2016/5/3 2:02,3.1,4,3.2,4,3.8,5
2016/5/3 2:03,3.2,4,3.2,4,4.8,3
2016/5/3 2:04,3.1,4,3.2,4,4.1,5
2016/5/3 2:05,3.2,4,3.2,4,5.4,4
2016/5/3 2:06,3.3,4,3.3,4,6.4,5
2016/5/3 2:07,3.3,4,3.3,4,4.7,5
2016/5/3 2:08,3.3,4,3.3,4,5,5
2016/5/3 2:09,3.3,4,3.3,4,4.3,6
2016/5/3 2:10,3.1,4,3.2,4,3,5
2016/5/3 2:11,3,4,3.1,4,3.3,4
2016/5/3 2:12,3,4,3,4,4.1,5
2016/5/3 2:13,2.9,4,3,4,3.5,3
2016/5/3 2:14,2.9,4,2.9,4,3.6,4
2016/5/3 2:15,2.8,4,2.9,4,3.7,4
2016/5/3 2:16,2.7,4,2.8,4,5.8,5
2016/5/3 2:17,2.7,4,2.7,4,4.9,5
2016/5/3 2:18,2.6,4,2.7,4,4.2,4
2016/5/3 2:19,2.7,4,2.7,4,5.1,3
2016/5/3 2:20,2.7,4,2.7,4,4.7,6
2016/5/3 2:21,2.9,4,2.9,4,6,8
2016/5/3 2:22,3.1,5,3.1,5,6.2,5
2016/5/3 2:23,3,5,3.1,5,3.5,6
2016/5/3 2:24,2.9,5,3,5,3,5
2016/5/3 2:25,2.8,5,2.8,5,3.1,4
2016/5/3 2:26,2.6,5,2.8,5,3.5,3
2016/5/3 2:27,2.6,5,2.6,5,4.8,4
2016/5/3 2:28,2.8,5,2.8,5,8.1,5
2016/5/3 2:29,2.9,5,2.9,5,7.5,6
2016/5/3 2:30,2.8,5,2.9,5,2.9,4
2016/5/3 2:31,2.7,5,2.8,5,3.2,6
2016/5/3 2:32,2.5,5,2.6,5,4.4,6
2016/5/3 2:33,2.5,5,2.5,5,2.4,6
2016/5/3 2:34,2.6,5,2.6,5,3.1,3
2016/5/3 2:35,2.6,5,2.6,5,4.4,4
2016/5/3 2:36,2.7,5,2.7,5,5.1,4
2016/5/3 2:37,2.6,5,2.7,5,3.5,6
2016/5/3 2:38,2.3,5,2.6,5,3.9,4
2016/5/3 2:39,2.1,5,2.3,5,4.1,8
2016/5/3 2:40,2.1,5,2.1,5,3.8,5
2016/5/3 2:41,2.2,5,2.2,5,3.7,5
2016/5/3 2:42,2.2,5,2.2,5,3.3,5
2016/5/3 2:43,2.4,5,2.4,5,6.5,6
2016/5/3 2:44,2.6,5,2.6,5,6.1,6
2016/5/3 2:45,2.8,5,2.8,5,5.7,6
2016/5/3 2:46,2.9,6,2.9,6,6.2,5
2016/5/3 2:47,3.2,6,3.2,6,7.4,5
2016/5/3 2:48,3.3,6,3.3,6,5.7,5
2016/5/3 2:49,3.5,6,3.5,6,5,5
2016/5/3 2:50,3.6,6,3.6,6,4.5,6
2016/5/3 2:51,3.7,6,3.7,6,5.2,6
2016/5/3 2:52,3.9,6,3.9,6,6.5,5
2016/5/3 2:53,4,6,4,6,7.1,7
2016/5/3 2:54,3.7,6,3.9,6,4.4,6
2016/5/3 2:55,3.7,5,3.8,6,5.7,6
2016/5/3 2:56,3.6,5,3.7,6,4.7,5
2016/5/3 2:57,3.3,5,3.6,6,5,5
2016/5/3 2:58,3.2,6,3.3,6,3.6,7
2016/5/3 2:59,3.1,6,3.2,6,4.2,6
2016/5/3 3:00,3.3,6,3.3,6,5.8,8
2016/5/3 3:01,3.1,6,3.3,6,4.8,6
2016/5/3 3:02,3.1,6,3.2,6,6.2,5
2016/5/3 3:03,3,6,3.1,6,4.8,5
2016/5/3 3:04,3.1,6,3.2,6,6,7
2016/5/3 3:05,3.2,6,3.3,5,6.1,7
2016/5/3 3:06,3.2,7,3.3,5,4.8,7
2016/5/3 3:07,3.3,7,3.3,5,4.2,7
2016/5/3 3:08,3.4,7,3.4,7,4.7,7
2016/5/3 3:09,3.5,7,3.5,7,5.7,8
2016/5/3 3:10,3.3,7,3.5,7,3.9,8
2016/5/3 3:11,3.3,7,3.4,7,3.5,6
2016/5/3 3:12,3.4,7,3.4,7,5.7,7
2016/5/3 3:13,3.3,7,3.4,7,4.9,8
2016/5/3 3:14,3.2,7,3.3,7,7.5,5
2016/5/3 3:15,3.4,7,3.4,7,8.4,7
2016/5/3 3:16,3.6,7,3.6,7,6,6
2016/5/3 3:17,3.5,7,3.6,7,5.4,7
2016/5/3 3:18,3.4,7,3.5,7,4.8,6
2016/5/3 3:19,3.4,7,3.4,7,6.7,6
2016/5/3 3:20,3.4,6,3.4,7,4.3,7
2016/5/3 3:21,3.3,6,3.4,7,3.7,6
2016/5/3 3:22,3,6,3.3,7,1.1,8
2016/5/3 3:23,2.8,6,3,7,2.1,6
2016/5/3 3:24,2.7,7,2.8,7,5,7
2016/5/3 3:25,2.5,7,2.7,7,7.2,8
2016/5/3 3:26,2.5,7,2.5,7,5.6,7
2016/5/3 3:27,2.5,7,2.5,7,4.8,6
2016/5/3 3:28,2.6,6,2.6,7,4.8,6
2016/5/3 3:29,2.6,6,2.7,7,4.7,5
2016/5/3 3:30,2.6,6,2.6,6,6,8
2016/5/3 3:31,2.6,6,2.6,6,5,7
2016/5/3 3:32,2.9,6,2.9,6,5.1,5
2016/5/3 3:33,3.1,6,3.1,6,6.1,6
2016/5/3 3:34,3.2,6,3.3,6,5.6,6
2016/5/3 3:35,3.1,6,3.2,6,3.7,6
2016/5/3 3:36,3,6,3.1,6,5,4
2016/5/3 3:37,2.9,6,3,6,4.4,4
2016/5/3 3:38,3,6,3,6,6.4,7
2016/5/3 3:39,3,6,3,6,4.5,5
2016/5/3 3:40,3,6,3,6,6.4,6
2016/5/3 3:41,3.3,6,3.3,6,8.2,6
2016/5/3 3:42,3.3,6,3.4,6,6.4,5
2016/5/3 3:43,3.3,6,3.3,6,5.5,3
2016/5/3 3:44,3.3,5,3.3,6,5.5,4
2016/5/3 3:45,3.3,5,3.3,6,3.9,6
2016/5/3 3:46,3.4,5,3.4,6,5.1,6
2016/5/3 3:47,3.4,5,3.4,6,4.2,5
2016/5/3 3:48,3.3,5,3.4,6,3.5,4
2016/5/3 3:49,3.3,5,3.3,6,4.7,6
2016/5/3 3:50,3.2,5,3.3,6,3.5,5
2016/5/3 3:51,2.9,5,3.2,6,3.5,4
2016/5/3 3:52,2.8,5,2.8,5,3.9,7
2016/5/3 3:53,2.8,5,2.8,5,4.1,7
2016/5/3 3:54,2.7,6,2.8,5,3.7,6
2016/5/3 3:55,2.5,6,2.7,5,1.9,6
2016/5/3 3:56,2.3,5,2.5,5,3,3
2016/5/3 3:57,2.3,5,2.3,5,3.7,5
2016/5/3 3:58,2.4,5,2.4,5,5.1,5
2016/5/3 3:59,2.3,5,2.4,5,3.8,5
2016/5/3 4:00,2.4,5,2.4,5,5,4
2016/5/3 4:01,2.4,5,2.4,5,4.1,4
2016/5/3 4:02,2.4,5,2.5,5,3.2,4
2016/5/3 4:03,2.3,5,2.4,5,2.9,4
2016/5/3 4:04,2.3,4,2.3,6,3.7,6
2016/5/3 4:05,2.5,4,2.5,6,5.7,5
2016/5/3 4:06,2.6,4,2.6,4,4.2,4
2016/5/3 4:07,2.6,5,2.6,4,4.2,5
2016/5/3 4:08,2.5,5,2.6,4,3.3,5
2016/5/3 4:09,2.5,5,2.5,4,4.2,8
2016/5/3 4:10,2.4,5,2.5,4,4.1,6
2016/5/3 4:11,2.5,5,2.5,4,4.2,6
2016/5/3 4:12,2.4,5,2.5,4,3.6,6
2016/5/3 4:13,2.5,5,2.5,4,3.6,5
2016/5/3 4:14,2.7,5,2.7,5,5.5,5
2016/5/3 4:15,2.7,5,2.7,5,4.9,5
2016/5/3 4:16,2.6,5,2.7,5,3.6,6
2016/5/3 4:17,2.6,5,2.7,5,4.8,4
2016/5/3 4:18,2.7,5,2.7,5,4.2,5
2016/5/3 4:19,2.8,5,2.8,5,4.4,5
2016/5/3 4:20,2.9,5,2.9,5,4.4,5
2016/5/3 4:21,2.8,5,2.9,5,2.7,3
2016/5/3 4:22,2.7,5,2.8,5,2.9,2
2016/5/3 4:23,2.8,4,2.8,5,3.2,4
2016/5/3 4:24,2.6,4,2.8,5,3.9,3
2016/5/3 4:25,2.5,4,2.6,5,3.5,3
2016/5/3 4:26,2.7,4,2.7,5,4.7,3
2016/5/3 4:27,2.6,4,2.7,5,5.4,4
2016/5/3 4:28,2.7,4,2.7,5,3.7,3
2016/5/3 4:29,2.6,4,2.6,5,4.2,4
2016/5/3 4:30,2.6,4,2.6,5,4.9,6
2016/5/3 4:31,2.7,4,2.7,5,3.7,5
2016/5/3 4:32,2.7,4,2.7,5,3.7,3
2016/5/3 4:33,2.7,4,2.7,4,3,3
2016/5/3 4:34,2.7,4,2.7,4,3.6,3
2016/5/3 4:35,2.8,4,2.8,4,5.5,4
2016/5/3 4:36,2.8,4,2.8,4,5.1,5
2016/5/3 4:37,2.8,4,2.8,4,3.7,4
2016/5/3 4:38,2.8,4,2.8,4,3.8,3
2016/5/3 4:39,2.8,4,2.8,4,4.9,3
2016/5/3 4:40,2.7,4,2.8,4,3.5,5
2016/5/3 4:41,2.8,4,2.8,4,4.8,4
2016/5/3 4:42,2.8,4,2.8,4,3.9,3
2016/5/3 4:43,2.8,4,2.8,4,3.8,4
2016/5/3 4:44,2.8,4,2.8,4,3.5,5
2016/5/3 4:45,2.7,4,2.8,4,3.6,5
2016/5/3 4:46,2.6,4,2.7,4,3,5
2016/5/3 4:47,2.6,4,2.6,4,4.2,4
2016/5/3 4:48,2.6,4,2.6,4,3.6,4
2016/5/3 4:49,2.6,4,2.6,4,3.3,4
2016/5/3 4:50,2.7,4,2.7,4,4.2,4
2016/5/3 4:51,2.7,4,2.7,4,4.5,3
2016/5/3 4:52,2.8,4,2.8,4,4.9,4
2016/5/3 4:53,2.8,4,2.8,4,3.6,3
2016/5/3 4:54,2.8,4,2.8,4,3.7,5
2016/5/3 4:55,2.8,4,2.8,4,2.9,4
2016/5/3 4:56,2.8,4,2.8,4,3.6,3
2016/5/3 4:57,2.7,4,2.8,4,5.1,4
2016/5/3 4:58,2.8,4,2.8,4,3.9,3
2016/5/3 4:59,2.7,4,2.8,4,3.5,3
2016/5/3 5:00,2.7,4,2.7,4,4.5,5
2016/5/3 5:01,2.7,4,2.7,4,5,3
2016/5/3 5:02,2.6,4,2.7,4,4.7,3
2016/5/3 5:03,2.6,4,2.6,4,4.7,4
2016/5/3 5:04,2.6,4,2.7,4,3.7,5
2016/5/3 5:05,2.7,4,2.7,4,3.5,4
2016/5/3 5:06,2.7,4,2.7,4,4.5,5
2016/5/3 5:07,2.8,4,2.8,4,4.9,5
2016/5/3 5:08,2.9,4,2.9,4,5.1,4
2016/5/3 5:09,2.8,4,2.9,4,3.5,2
2016/5/3 5:10,2.9,4,2.9,4,4.2,5
2016/5/3 5:11,2.9,4,2.9,4,5,3
2016/5/3 5:12,3,4,3,4,5.6,4
2016/5/3 5:13,3,4,3,4,4.9,4
2016/5/3 5:14,3,4,3,4,3.8,5
2016/5/3 5:15,3,4,3,4,2.9,4
2016/5/3 5:16,2.9,4,3,4,2.6,3
2016/5/3 5:17,2.8,4,2.9,4,4.4,4
2016/5/3 5:18,2.7,4,2.8,4,3.7,6
2016/5/3 5:19,2.7,4,2.7,4,3.6,4
2016/5/3 5:20,2.5,4,2.6,4,2.6,6
2016/5/3 5:21,2.4,4,2.5,4,3,5
2016/5/3 5:22,2.3,4,2.4,4,2.6,3
2016/5/3 5:23,2.2,4,2.3,4,5.2,3
2016/5/3 5:24,2.1,4,2.2,4,2.5,4
2016/5/3 5:25,2,4,2.1,4,2.7,4
2016/5/3 5:26,2.3,4,2.3,4,6.8,6
2016/5/3 5:27,2.3,4,2.3,4,7.2,7
2016/5/3 5:28,2.2,4,2.3,4,2.6,5
2016/5/3 5:29,2.3,4,2.3,4,6,5
2016/5/3 5:30,2.6,4,2.6,4,6.5,4
2016/5/3 5:31,2.9,4,2.9,4,6.9,6
2016/5/3 5:32,3.1,5,3.1,5,6.1,6
2016/5/3 5:33,3.1,5,3.1,5,4.4,5
2016/5/3 5:34,3.3,5,3.3,5,5.1,6
2016/5/3 5:35,3.3,5,3.3,5,3.8,8
2016/5/3 5:36,3.2,6,3.3,5,2.9,5
2016/5/3 5:37,3.1,6,3.1,5,3.1,5
2016/5/3 5:38,3.1,6,3.1,5,2.6,6
2016/5/3 5:39,2.9,6,3.1,5,2.7,5
2016/5/3 5:40,2.7,6,2.9,5,2.6,6
2016/5/3 5:41,2.4,6,2.7,5,3.2,5
2016/5/3 5:42,2.3,5,2.4,5,3,5
2016/5/3 5:43,2.2,5,2.3,5,2.7,4
2016/5/3 5:44,2,5,2.2,5,3.3,5
2016/5/3 5:45,2,5,2,6,3.1,4
2016/5/3 5:46,2.1,5,2.1,6,3.7,5
2016/5/3 5:47,2.1,5,2.1,6,3,4
2016/5/3 5:48,2.1,5,2.1,6,3,5
2016/5/3 5:49,2.2,4,2.2,6,4.4,4
2016/5/3 5:50,2.4,4,2.4,6,5.6,5
2016/5/3 5:51,2.4,5,2.4,6,3.5,5
2016/5/3 5:52,2.4,5,2.4,4,3.1,5
2016/5/3 5:53,2.4,5,2.4,4,3,6
2016/5/3 5:54,2.5,5,2.5,5,4.5,6
2016/5/3 5:55,2.6,5,2.6,5,4.4,6
2016/5/3 5:56,2.5,5,2.6,5,4.8,6
2016/5/3 5:57,2.8,5,2.8,5,6.4,6
2016/5/3 5:58,2.9,5,2.9,5,4.7,5
2016/5/3 5:59,2.9,5,3,5,5.4,5
2016/5/3 6:00,2.9,5,2.9,5,3.7,5
2016/5/3 6:01,2.9,5,2.9,5,4.1,6
2016/5/3 6:02,3,5,3,5,5.4,4
2016/5/3 6:03,3.3,6,3.3,5,7.4,6
2016/5/3 6:04,3.5,5,3.5,6,6.5,7
2016/5/3 6:05,3.5,6,3.5,6,4.3,6
2016/5/3 6:06,3.7,6,3.7,6,6.2,6
2016/5/3 6:07,3.4,6,3.7,6,6.1,7
2016/5/3 6:08,3.4,6,3.4,6,6.4,5
2016/5/3 6:09,3.5,6,3.5,6,6.9,5
2016/5/3 6:10,3.5,6,3.5,6,4.9,5
2016/5/3 6:11,3.5,6,3.5,6,3.5,5
2016/5/3 6:12,3.5,6,3.5,6,6.5,5
2016/5/3 6:13,3.5,6,3.6,6,7.4,7
2016/5/3 6:14,3.4,6,3.5,6,7.8,5
2016/5/3 6:15,3.6,6,3.6,6,8.2,5
2016/5/3 6:16,3.5,5,3.6,6,5.8,5
2016/5/3 6:17,3.8,5,3.8,5,6.2,5
2016/5/3 6:18,3.9,5,3.9,5,7.2,3
2016/5/3 6:19,3.9,5,3.9,5,6.9,5
2016/5/3 6:20,4.1,5,4.1,5,7.1,4
2016/5/3 6:21,4.2,5,4.2,5,5.1,4
2016/5/3 6:22,4.2,6,4.2,5,6.7,6
2016/5/3 6:23,4.1,5,4.2,5,5.5,6
2016/5/3 6:24,4,5,4.1,5,4.7,5
2016/5/3 6:25,3.9,5,3.9,5,6.7,5
2016/5/3 6:26,4,5,4,5,6.4,5
2016/5/3 6:27,4,5,4,5,7.9,6
2016/5/3 6:28,4.2,5,4.2,5,8.5,7
2016/5/3 6:29,4.2,6,4.2,5,6.4,6
2016/5/3 6:30,3.9,6,4.2,5,4.4,7
2016/5/3 6:31,3.8,6,3.9,5,4.2,4
2016/5/3 6:32,3.7,5,3.8,6,5.4,6
2016/5/3 6:33,3.6,6,3.7,5,5.5,6
2016/5/3 6:34,3.6,6,3.6,5,4.8,6
2016/5/3 6:35,3.5,6,3.6,5,4.1,5
2016/5/3 6:36,3.4,6,3.5,5,7,6
2016/5/3 6:37,3.3,6,3.4,5,5.8,5
2016/5/3 6:38,3.2,6,3.3,5,7.4,6
2016/5/3 6:39,3.2,6,3.2,6,6.8,6
2016/5/3 6:40,3.3,6,3.3,6,6,4
2016/5/3 6:41,3.5,6,3.5,6,6.8,4
2016/5/3 6:42,3.8,6,3.8,6,9.2,6
2016/5/3 6:43,4,6,4,6,6.3,7
2016/5/3 6:44,4,5,4,6,4.7,5
2016/5/3 6:45,3.9,5,4,6,4.2,5
2016/5/3 6:46,4,5,4,6,5.8,6
2016/5/3 6:47,3.9,6,4,6,5.2,6
2016/5/3 6:48,3.6,6,3.8,6,2.6,5
2016/5/3 6:49,3.4,6,3.6,6,5.7,4
2016/5/3 6:50,3.5,6,3.5,6,7.7,6
2016/5/3 6:51,3.7,6,3.7,6,9.7,7
2016/5/3 6:52,3.6,6,3.8,6,8.1,6
2016/5/3 6:53,3.5,6,3.6,6,5.5,4
2016/5/3 6:54,3.4,6,3.4,5,4.7,5
2016/5/3 6:55,3.5,6,3.5,5,6,5
2016/5/3 6:56,3.3,6,3.5,5,3.6,6
2016/5/3 6:57,3.4,6,3.4,5,5,6
2016/5/3 6:58,3.4,6,3.4,6,4.2,6
2016/5/3 6:59,3.5,6,3.5,6,5.1,6
2016/5/3 7:00,3.4,6,3.5,6,6.1,7
2016/5/3 7:01,3.2,6,3.4,6,8.3,6
2016/5/3 7:02,3.3,6,3.3,6,7.6,6
2016/5/3 7:03,3.5,6,3.5,6,6.5,6
2016/5/3 7:04,3.5,6,3.6,6,5,5
2016/5/3 7:05,3.5,6,3.5,6,6.3,4
2016/5/3 7:06,3.6,5,3.6,6,4.9,5
2016/5/3 7:07,3.8,5,3.8,5,8.2,4
2016/5/3 7:08,4.1,5,4.1,5,9.4,5
2016/5/3 7:09,4.1,5,4.2,5,6.2,4
2016/5/3 7:10,4.3,5,4.3,5,8.4,5
2016/5/3 7:11,4.5,5,4.5,5,10.3,6
2016/5/3 7:12,4.7,5,4.7,5,10.2,6
2016/5/3 7:13,4.7,6,4.7,5,10.2,8
2016/5/3 7:14,4.6,6,4.7,5,4.4,7
2016/5/3 7:15,4.6,6,4.6,5,5,5
2016/5/3 7:16,4.8,6,4.8,6,6.8,5
2016/5/3 7:17,4.6,6,4.8,6,4.9,5
2016/5/3 7:18,4.3,6,4.6,6,5.2,5
2016/5/3 7:19,4.4,6,4.4,6,6.8,6
2016/5/3 7:20,4.2,6,4.3,6,5.6,5
2016/5/3 7:21,3.9,6,4.2,6,5.8,6
2016/5/3 7:22,3.7,6,3.9,6,9.5,7
2016/5/3 7:23,3.8,5,3.8,6,8.7,6
2016/5/3 7:24,3.9,5,3.9,6,5.7,6
2016/5/3 7:25,4.2,5,4.2,6,9.7,6
2016/5/3 7:26,4.2,6,4.2,6,6.2,6
2016/5/3 7:27,4.3,6,4.3,6,5.4,6
2016/5/3 7:28,4.3,6,4.3,6,6,5
2016/5/3 7:29,4.5,6,4.5,6,8.3,5
2016/5/3 7:30,4.6,6,4.7,6,6.3,4
2016/5/3 7:31,4.6,6,4.7,6,8.1,6
2016/5/3 7:32,4.4,6,4.6,6,6.8,6
2016/5/3 7:33,4.3,6,4.5,6,7,7
2016/5/3 7:34,4.3,6,4.3,6,5.8,6
2016/5/3 7:35,4.2,6,4.3,6,6,6
2016/5/3 7:36,4.1,6,4.2,6,6,6
2016/5/3 7:37,4.1,6,4.2,6,6.5,7
2016/5/3 7:38,4,6,4.1,6,5.4,6
2016/5/3 7:39,3.7,6,4,6,4.3,4
2016/5/3 7:40,3.5,6,3.6,6,4.2,5
2016/5/3 7:41,3.5,6,3.5,6,5.5,6
2016/5/3 7:42,3.5,6,3.5,6,5.8,7
2016/5/3 7:43,3.4,6,3.5,6,4.1,5
2016/5/3 7:44,3.3,6,3.4,6,3.9,6
2016/5/3 7:45,3.1,6,3.2,6,4.7,6
2016/5/3 7:46,2.8,6,3,6,4.2,6
2016/5/3 7:47,2.9,6,2.9,6,8.5,7
2016/5/3 7:48,3,6,3,6,7.5,6
2016/5/3 7:49,3.4,6,3.4,6,8.4,6
2016/5/3 7:50,3.5,6,3.5,6,6.9,7
2016/5/3 7:51,3.4,6,3.5,6,4.4,6
2016/5/3 7:52,3.3,6,3.3,6,5.4,8
2016/5/3 7:53,3.3,6,3.3,6,5.7,8
2016/5/3 7:54,3.4,6,3.4,6,5.4,6
2016/5/3 7:55,3.6,6,3.6,6,7.5,6
2016/5/3 7:56,3.9,6,3.9,6,7.2,4
2016/5/3 7:57,3.8,6,4,6,4.9,5
2016/5/3 7:58,3.6,6,3.8,6,3.7,4
2016/5/3 7:59,3.3,6,3.6,6,3.9,6
2016/5/3 8:00,3.2,6,3.3,6,7.5,7
2016/5/3 8:01,3.4,6,3.4,6,7.4,7
2016/5/3 8:02,3.3,6,3.4,6,5.6,6
2016/5/3 8:03,3.4,6,3.4,6,6.2,7
2016/5/3 8:04,3.3,6,3.4,6,4.2,7
2016/5/3 8:05,3.2,6,3.3,6,6,4
2016/5/3 8:06,3.3,6,3.3,6,10.3,6
2016/5/3 8:07,3.5,6,3.5,6,8.9,6
2016/5/3 8:08,3.9,6,3.9,6,8.6,5
2016/5/3 8:09,4.1,6,4.1,6,7.8,7
2016/5/3 8:10,4,6,4.1,6,3.8,6
2016/5/3 8:11,4,6,4,6,7.5,6
2016/5/3 8:12,4.1,6,4.1,6,6.9,5
2016/5/3 8:13,4.3,6,4.3,6,8.7,5
2016/5/3 8:14,4.6,6,4.6,6,9.8,6
2016/5/3 8:15,4.9,6,4.9,6,11,6
2016/5/3 8:16,4.7,6,4.9,6,8.2,7
2016/5/3 8:17,4.6,6,4.7,6,7.9,7
2016/5/3 8:18,4.4,6,4.6,6,7.1,5
2016/5/3 8:19,4.6,6,4.6,6,8.6,6
2016/5/3 8:20,4.8,6,4.8,6,6.5,5
2016/5/3 8:21,5,6,5,6,8.3,4
2016/5/3 8:22,5.1,6,5.1,6,7.7,5
2016/5/3 8:23,5.1,6,5.1,6,9.8,6
2016/5/3 8:24,5.1,6,5.1,6,9.7,6
2016/5/3 8:25,4.8,6,5,6,5.4,10
2016/5/3 8:26,4.8,6,4.8,6,6,6
2016/5/3 8:27,4.7,6,4.8,6,6.8,6
2016/5/3 8:28,4.6,6,4.7,6,9.1,7
2016/5/3 8:29,4.6,6,4.7,6,10.2,7
2016/5/3 8:30,4.8,6,4.8,6,9.9,6
2016/5/3 8:31,4.8,6,5,6,10.1,7
2016/5/3 8:32,4.9,6,5,6,9.2,6
2016/5/3 8:33,4.8,6,5,6,8.9,5
2016/5/3 8:34,4.8,6,4.8,6,7.9,6
2016/5/3 8:35,4.9,6,4.9,6,6.2,5
2016/5/3 8:36,4.9,6,4.9,6,7.8,6
2016/5/3 8:37,5.2,6,5.2,6,9.5,5
2016/5/3 8:38,5.4,6,5.5,6,9.4,5
2016/5/3 8:39,5.4,6,5.4,6,8.1,6
2016/5/3 8:40,5.2,6,5.3,6,7.9,5
2016/5/3 8:41,5.2,6,5.2,6,8.2,6
2016/5/3 8:42,5.1,6,5.2,6,8.9,6
2016/5/3 8:43,5.3,6,5.3,6,9.5,5
2016/5/3 8:44,5.5,6,5.5,6,8.9,5
2016/5/3 8:45,5.7,6,5.7,6,10.1,6
2016/5/3 8:46,5.9,6,5.9,6,11,7
2016/5/3 8:47,5.7,6,5.9,6,10.3,8
2016/5/3 8:48,5.6,6,5.7,6,9,6
2016/5/3 8:49,5.7,6,5.7,6,9.5,6
2016/5/3 8:50,5.7,6,5.8,6,6.1,6
2016/5/3 8:51,5.8,6,5.8,6,8.6,6
2016/5/3 8:52,5.6,6,5.8,6,5.7,8
2016/5/3 8:53,5.4,6,5.5,6,7.7,7
2016/5/3 8:54,5.3,6,5.4,6,7.6,4
2016/5/3 8:55,5,6,5.3,6,6,6
2016/5/3 8:56,5,6,5,6,8.4,5
2016/5/3 8:57,5.2,6,5.2,6,9.9,5
2016/5/3 8:58,5,6,5.2,6,7,6
2016/5/3 8:59,4.9,6,5,6,7.8,6
2016/5/3 9:00,5,6,5,6,7.6,4
2016/5/3 9:01,4.8,6,5,6,5.8,6
2016/5/3 9:02,5.1,5,5.1,6,10.2,5
2016/5/3 9:03,5.3,5,5.3,6,9.8,6
2016/5/3 9:04,5.2,6,5.3,6,6.5,6
2016/5/3 9:05,5.1,6,5.2,5,4.9,7
2016/5/3 9:06,4.7,6,5.1,5,4.3,5
2016/5/3 9:07,4.5,6,4.7,5,7.6,6
2016/5/3 9:08,4.6,6,4.6,5,7.7,6
2016/5/3 9:09,4.5,6,4.6,5,7.2,5
2016/5/3 9:10,4.3,6,4.5,5,6.5,4
2016/5/3 9:11,4.3,6,4.3,5,8.2,5
2016/5/3 9:12,4.3,6,4.3,5,11.4,6
2016/5/3 9:13,4.4,6,4.4,5,10.7,5
2016/5/3 9:14,4.6,6,4.6,6,9.4,6
2016/5/3 9:15,4.7,6,4.7,6,7.5,6
2016/5/3 9:16,5,6,5,6,8.5,6
2016/5/3 9:17,4.9,6,5,6,7.8,6
2016/5/3 9:18,5.2,6,5.2,6,10.7,6
2016/5/3 9:19,5.4,6,5.4,6,9.2,7
2016/5/3 9:20,5.6,6,5.6,6,8.7,7
2016/5/3 9:21,5.8,6,5.8,6,9.7,6
2016/5/3 9:22,5.5,6,5.8,6,7.4,7
2016/5/3 9:23,5.2,7,5.5,6,7.7,7
2016/5/3 9:24,5.4,7,5.4,6,10.7,7
2016/5/3 9:25,5.6,7,5.6,6,13.5,6
2016/5/3 9:26,5.8,7,5.8,6,11.1,4
2016/5/3 9:27,6.1,6,6.1,6,9.9,7
2016/5/3 9:28,6.1,6,6.1,6,10,7
2016/5/3 9:29,5.9,6,6.1,6,7.7,7
2016/5/3 9:30,5.8,6,5.9,6,8.9,5
2016/5/3 9:31,6,6,6,6,11.4,6
2016/5/3 9:32,6.4,6,6.4,6,10.5,6
2016/5/3 9:33,6.4,6,6.4,6,6,6
2016/5/3 9:34,5.9,6,6.3,6,5.4,5
2016/5/3 9:35,5.8,6,5.9,6,9.8,6
2016/5/3 9:36,5.7,6,5.9,6,9.5,4
2016/5/3 9:37,5.7,6,5.8,6,11,5
2016/5/3 9:38,5.7,6,5.7,6,11.6,6
2016/5/3 9:39,5.6,6,5.7,6,8.3,6
2016/5/3 9:40,5.8,6,5.8,6,9.2,6
2016/5/3 9:41,5.4,6,5.7,6,7.7,6
2016/5/3 9:42,5.4,6,5.4,6,13,6
2016/5/3 9:43,5.7,6,5.7,6,11,6
2016/5/3 9:44,6,6,6,6,9.2,6
2016/5/3 9:45,5.9,6,6,6,10.2,8
2016/5/3 9:46,5.7,6,5.8,6,9.2,6
2016/5/3 9:47,5.4,6,5.7,6,6.4,7
2016/5/3 9:48,5.2,6,5.4,6,7.6,6
2016/5/3 9:49,5.3,6,5.3,6,10.8,6
2016/5/3 9:50,5.2,6,5.3,6,7.1,7
2016/5/3 9:51,5.3,6,5.3,6,9.4,9
2016/5/3 9:52,5,7,5.3,6,7.2,6
2016/5/3 9:53,4.9,7,4.9,6,12.1,5
2016/5/3 9:54,4.9,7,5,6,8.6,6
2016/5/3 9:55,4.9,7,5,6,9.7,8
2016/5/3 9:56,4.8,7,4.9,6,7.9,6
2016/5/3 9:57,5.3,7,5.3,6,14,8
2016/5/3 9:58,5.5,7,5.5,7,15.2,8
2016/5/3 9:59,5.5,7,5.6,7,9.7,7
2016/5/3 10:00,5.6,7,5.6,7,9.8,7
2016/5/3 10:01,5.7,7,5.7,7,10,6
2016/5/3 10:02,5.7,7,5.7,7,10.9,8
2016/5/3 10:03,5.6,7,5.8,7,11.8,7
2016/5/3 10:04,5.6,7,5.6,7,7.8,6
2016/5/3 10:05,5.5,7,5.6,7,8.2,4
2016/5/3 10:06,5.5,7,5.6,7,10.6,6
2016/5/3 10:07,5.2,7,5.5,7,10.1,6
2016/5/3 10:08,5.3,7,5.3,7,12.4,7
2016/5/3 10:09,5.3,7,5.3,7,13.5,7
2016/5/3 10:10,5.5,7,5.6,7,12.6,6
2016/5/3 10:11,5.7,7,5.7,7,14.3,5
2016/5/3 10:12,5.7,7,5.8,7,10.2,6
2016/5/3 10:13,5.9,6,5.9,6,11.1,6
2016/5/3 10:14,5.7,7,5.9,6,11,7
2016/5/3 10:15,5.9,7,5.9,6,8.6,7
2016/5/3 10:16,6,7,6,7,8.9,7
2016/5/3 10:17,6,7,6,7,11.9,6
2016/5/3 10:18,6,7,6,7,14,6
2016/5/3 10:19,6.2,7,6.2,7,14.5,6
2016/5/3 10:20,5.8,7,6.1,7,5.4,8
2016/5/3 10:21,5.3,7,5.7,7,8.6,6
2016/5/3 10:22,5.5,7,5.5,7,12.4,6
2016/5/3 10:23,5.5,7,5.5,7,11.1,7
2016/5/3 10:24,5.8,7,5.8,7,11.5,6
2016/5/3 10:25,5.8,6,5.9,7,9.4,6
2016/5/3 10:26,5.9,6,5.9,7,13.5,6
2016/5/3 10:27,6,6,6.1,7,11.8,5
2016/5/3 10:28,5.9,7,6,7,12.4,7
2016/5/3 10:29,6,7,6,7,13.6,7
2016/5/3 10:30,6.7,7,6.7,7,15.2,6
2016/5/3 10:31,7,6,7,7,14,6
2016/5/3 10:32,7.1,6,7.1,6,12.5,6
2016/5/3 10:33,7.1,7,7.2,6,13.2,6
2016/5/3 10:34,7.1,6,7.1,6,12.4,5
2016/5/3 10:35,6.9,6,7.1,6,11,6
2016/5/3 10:36,6.5,6,7,6,6.2,6
2016/5/3 10:37,6.4,6,6.5,6,8.4,7
2016/5/3 10:38,6.3,6,6.3,6,8.2,8
2016/5/3 10:39,5.8,6,6.2,6,9.5,6
2016/5/3 10:40,5.1,7,5.8,6,6.5,5
2016/5/3 10:41,4.7,7,5,6,8.1,7
2016/5/3 10:42,4.3,7,4.6,6,11.4,5
2016/5/3 10:43,4.4,7,4.4,7,14.1,6
2016/5/3 10:44,4.3,7,4.4,6,9.3,6
2016/5/3 10:45,4.8,7,4.8,6,14.4,5
2016/5/3 10:46,5,7,5,6,9.2,5
2016/5/3 10:47,5.1,6,5.1,6,12.6,5
2016/5/3 10:48,5.2,6,5.2,6,11.8,5
2016/5/3 10:49,5.2,6,5.2,6,10.8,7
2016/5/3 10:50,5.7,6,5.7,6,13,7
2016/5/3 10:51,6.2,6,6.2,6,13.9,7
2016/5/3 10:52,6.3,6,6.3,6,11.5,7
2016/5/3 10:53,5.7,6,6.3,6,6.3,7
2016/5/3 10:54,5.8,6,5.8,6,7,5
2016/5/3 10:55,5.5,6,5.8,6,13,6
2016/5/3 10:56,5.5,7,5.5,6,12.3,6
2016/5/3 10:57,5.7,7,5.9,6,14.5,5
2016/5/3 10:58,5.8,7,5.8,6,13.6,6
2016/5/3 10:59,6,7,6,6,11.6,9
2016/5/3 11:00,5.8,7,6,6,10.6,6
2016/5/3 11:01,5.5,7,5.8,6,11,6
2016/5/3 11:02,5.6,7,5.6,6,14.1,9
2016/5/3 11:03,6.1,7,6.1,7,10.6,8
2016/5/3 11:04,6.2,7,6.3,7,11.7,8
2016/5/3 11:05,6,7,6.2,7,9.4,6
2016/5/3 11:06,5.9,7,6.1,7,7.7,6
2016/5/3 11:07,5.7,7,5.9,7,9.5,6
2016/5/3 11:08,5.9,7,5.9,7,13.2,6
2016/5/3 11:09,6.2,7,6.3,7,15.7,6
2016/5/3 11:10,6.2,7,6.2,7,12.8,8
2016/5/3 11:11,6.1,7,6.2,7,9,8
2016/5/3 11:12,5.8,7,6.1,7,9.9,6
2016/5/3 11:13,5.6,7,5.7,7,10.1,8
2016/5/3 11:14,5.8,7,5.8,7,12.2,6
2016/5/3 11:15,5.8,7,5.9,7,11.3,6
2016/5/3 11:16,6.1,7,6.1,7,9.9,6
2016/5/3 11:17,6.2,7,6.2,7,10,6
2016/5/3 11:18,6,7,6.2,7,13,8
2016/5/3 11:19,5.4,7,5.9,7,12.6,8
2016/5/3 11:20,5.5,7,5.5,7,12.2,6
2016/5/3 11:21,5.8,7,5.8,7,13.2,7
2016/5/3 11:22,5.7,7,5.8,7,9.3,9
2016/5/3 11:23,5.9,7,5.9,7,14.1,6
2016/5/3 11:24,5.8,7,5.8,7,10.5,8
2016/5/3 11:25,5.6,7,5.8,7,8.4,9
2016/5/3 11:26,5.5,7,5.6,7,11.4,6
2016/5/3 11:27,5.6,7,5.6,7,13.1,6
2016/5/3 11:28,5.6,7,5.7,7,12.2,6
2016/5/3 11:29,5.6,7,5.6,7,6.8,5
2016/5/3 11:30,5.5,7,5.8,7,9.7,6
2016/5/3 11:31,5.2,7,5.5,7,7.5,7
2016/5/3 11:32,5.3,7,5.3,7,9.8,8
2016/5/3 11:33,5,7,5.3,7,7.9,6
2016/5/3 11:34,5,7,5.1,7,8.2,6
2016/5/3 11:35,5.2,7,5.2,7,10.3,10
2016/5/3 11:36,5.1,7,5.3,7,11.7,10
2016/5/3 11:37,4.9,7,5,7,7.2,9
2016/5/3 11:38,4.8,7,4.9,7,10.1,8
2016/5/3 11:39,4.9,7,4.9,7,8.4,7
2016/5/3 11:40,4.9,7,4.9,7,10.7,8
2016/5/3 11:41,5.3,8,5.3,7,15.2,9
2016/5/3 11:42,5.3,8,5.3,7,12.2,8
2016/5/3 11:43,5.5,8,5.5,8,9.9,8
2016/5/3 11:44,5.3,8,5.5,8,8.5,7
2016/5/3 11:45,5.3,8,5.3,8,10.1,6
2016/5/3 11:46,5.2,8,5.3,8,8.7,6
2016/5/3 11:47,5.2,7,5.2,8,9.5,6
2016/5/3 11:48,5.2,7,5.2,8,11,6
2016/5/3 11:49,5.5,7,5.5,8,11.6,6
2016/5/3 11:50,5.4,7,5.4,8,10.1,9
2016/5/3 11:51,5.1,7,5.4,8,7.2,8
2016/5/3 11:52,4.9,7,5,8,7.9,8
2016/5/3 11:53,4.7,7,4.9,8,8.6,8
2016/5/3 11:54,5,7,5,7,10.9,8
2016/5/3 11:55,4.8,7,5,7,7.1,6
2016/5/3 11:56,5,7,5,7,11.6,7
2016/5/3 11:57,5.2,7,5.2,7,11.6,7
2016/5/3 11:58,5.3,7,5.4,7,12.5,8
2016/5/3 11:59,4.8,8,5.2,7,5.8,6
2016/5/3 12:00,4.7,7,4.8,7,10.6,6
2016/5/3 12:01,4.6,7,4.7,7,4.2,7
2016/5/3 12:02,4.4,7,4.6,7,4.5,9
2016/5/3 12:03,4.7,7,4.7,7,14.4,6
2016/5/3 12:04,4.7,7,4.8,7,11.3,6
2016/5/3 12:05,5,7,5,7,13.4,6
2016/5/3 12:06,5,7,5.1,7,10.6,6
2016/5/3 12:07,4.8,7,4.9,7,6.5,9